Year,Month,Day,Hour,Minute,Value (Times are PST for temperature in C)
2018,06,21,00,00,19.40
2018,06,21,00,01,19.40
2018,06,21,00,02,19.40
2018,06,21,00,03,19.40
2018,06,21,00,04,19.40
2018,06,21,00,05,19.40
2018,06,21,00,06,19.40
2018,06,21,00,07,19.30
2018,06,21,00,08,19.30
2018,06,21,00,09,19.30
2018,06,21,00,10,19.30
2018,06,21,00,11,19.30
2018,06,21,00,12,19.30
2018,06,21,00,13,19.20
2018,06,21,00,14,19.20
2018,06,21,00,15,19.20
2018,06,21,00,16,19.20
2018,06,21,00,17,19.10
2018,06,21,00,18,19.10
2018,06,21,00,19,19.10
2018,06,21,00,20,19.00
2018,06,21,00,21,19.00
2018,06,21,00,22,19.00
2018,06,21,00,23,19.00
2018,06,21,00,24,19.00
2018,06,21,00,25,18.90
2018,06,21,00,26,18.90
2018,06,21,00,27,18.90
2018,06,21,00,28,18.90
2018,06,21,00,29,18.90
2018,06,21,00,30,18.90
2018,06,21,00,31,18.90
2018,06,21,00,32,18.90
2018,06,21,00,33,18.90
2018,06,21,00,34,18.90
2018,06,21,00,35,18.90
2018,06,21,00,36,18.90
2018,06,21,00,37,18.90
2018,06,21,00,38,18.90
2018,06,21,00,39,18.90
2018,06,21,00,40,18.80
2018,06,21,00,41,18.80
2018,06,21,00,42,18.80
2018,06,21,00,43,18.80
2018,06,21,00,44,18.80
2018,06,21,00,45,18.80
2018,06,21,00,46,18.80
2018,06,21,00,47,18.70
2018,06,21,00,48,18.70
2018,06,21,00,49,18.70
2018,06,21,00,50,18.70
2018,06,21,00,51,18.70
2018,06,21,00,52,18.60
2018,06,21,00,53,18.60
2018,06,21,00,54,18.60
2018,06,21,00,55,18.60
2018,06,21,00,56,18.50
2018,06,21,00,57,18.50
2018,06,21,00,58,18.50
2018,06,21,00,59,18.50
2018,06,21,01,00,18.50
2018,06,21,01,01,18.40
2018,06,21,01,02,18.50
2018,06,21,01,03,18.40
2018,06,21,01,04,18.40
2018,06,21,01,05,18.40
2018,06,21,01,06,18.40
2018,06,21,01,07,18.40
2018,06,21,01,08,18.40
2018,06,21,01,09,18.40
2018,06,21,01,10,18.40
2018,06,21,01,11,18.40
2018,06,21,01,12,18.40
2018,06,21,01,13,18.30
2018,06,21,01,14,18.30
2018,06,21,01,15,18.30
2018,06,21,01,16,18.30
2018,06,21,01,17,18.30
2018,06,21,01,18,18.30
2018,06,21,01,19,18.30
2018,06,21,01,20,18.30
2018,06,21,01,21,18.30
2018,06,21,01,22,18.20
2018,06,21,01,23,18.20
2018,06,21,01,24,18.30
2018,06,21,01,25,18.20
2018,06,21,01,26,18.20
2018,06,21,01,27,18.30
2018,06,21,01,28,18.30
2018,06,21,01,29,18.20
2018,06,21,01,30,18.20
2018,06,21,01,31,18.20
2018,06,21,01,32,18.20
2018,06,21,01,33,18.20
2018,06,21,01,34,18.20
2018,06,21,01,35,18.20
2018,06,21,01,36,18.10
2018,06,21,01,37,18.10
2018,06,21,01,38,18.10
2018,06,21,01,39,18.10
2018,06,21,01,40,18.00
2018,06,21,01,41,18.00
2018,06,21,01,42,18.00
2018,06,21,01,43,17.90
2018,06,21,01,44,17.90
2018,06,21,01,45,17.90
2018,06,21,01,46,17.90
2018,06,21,01,47,17.80
2018,06,21,01,48,17.80
2018,06,21,01,49,17.80
2018,06,21,01,50,17.80
2018,06,21,01,51,17.80
2018,06,21,01,52,17.80
2018,06,21,01,53,17.70
2018,06,21,01,54,17.70
2018,06,21,01,55,17.70
2018,06,21,01,56,17.70
2018,06,21,01,57,17.70
2018,06,21,01,58,17.60
2018,06,21,01,59,17.60
2018,06,21,02,00,17.60
2018,06,21,02,01,17.60
2018,06,21,02,02,17.60
2018,06,21,02,03,17.60
2018,06,21,02,04,17.60
2018,06,21,02,05,17.60
2018,06,21,02,06,17.50
2018,06,21,02,07,17.50
2018,06,21,02,08,17.50
2018,06,21,02,09,17.50
2018,06,21,02,10,17.50
2018,06,21,02,11,17.50
2018,06,21,02,12,17.50
2018,06,21,02,13,17.50
2018,06,21,02,14,17.40
2018,06,21,02,15,17.40
2018,06,21,02,16,17.40
2018,06,21,02,17,17.40
2018,06,21,02,18,17.40
2018,06,21,02,19,17.40
2018,06,21,02,20,17.30
2018,06,21,02,21,17.30
2018,06,21,02,22,17.30
2018,06,21,02,23,17.30
2018,06,21,02,24,17.30
2018,06,21,02,25,17.30
2018,06,21,02,26,17.30
2018,06,21,02,27,17.30
2018,06,21,02,28,17.30
2018,06,21,02,29,17.30
2018,06,21,02,30,17.30
2018,06,21,02,31,17.30
2018,06,21,02,32,17.30
2018,06,21,02,33,17.30
2018,06,21,02,34,17.30
2018,06,21,02,35,17.30
2018,06,21,02,36,17.30
2018,06,21,02,37,17.30
2018,06,21,02,38,17.20
2018,06,21,02,39,17.20
2018,06,21,02,40,17.20
2018,06,21,02,41,17.30
2018,06,21,02,42,17.20
2018,06,21,02,43,17.20
2018,06,21,02,44,17.20
2018,06,21,02,45,17.20
2018,06,21,02,46,17.20
2018,06,21,02,47,17.20
2018,06,21,02,48,17.20
2018,06,21,02,49,17.20
2018,06,21,02,50,17.20
2018,06,21,02,51,17.20
2018,06,21,02,52,17.20
2018,06,21,02,53,17.20
2018,06,21,02,54,17.20
2018,06,21,02,55,17.20
2018,06,21,02,56,17.20
2018,06,21,02,57,17.20
2018,06,21,02,58,17.20
2018,06,21,02,59,17.20
2018,06,21,03,00,17.20
2018,06,21,03,01,17.20
2018,06,21,03,02,17.20
2018,06,21,03,03,17.20
2018,06,21,03,04,17.20
2018,06,21,03,05,17.20
2018,06,21,03,06,17.20
2018,06,21,03,07,17.20
2018,06,21,03,08,17.20
2018,06,21,03,09,17.20
2018,06,21,03,10,17.20
2018,06,21,03,11,17.20
2018,06,21,03,12,17.20
2018,06,21,03,13,17.20
2018,06,21,03,14,17.30
2018,06,21,03,15,17.30
2018,06,21,03,16,17.30
2018,06,21,03,17,17.30
2018,06,21,03,18,17.30
2018,06,21,03,19,17.30
2018,06,21,03,20,17.30
2018,06,21,03,21,17.30
2018,06,21,03,22,17.30
2018,06,21,03,23,17.30
2018,06,21,03,24,17.30
2018,06,21,03,25,17.30
2018,06,21,03,26,17.30
2018,06,21,03,27,17.30
2018,06,21,03,28,17.30
2018,06,21,03,29,17.30
2018,06,21,03,30,17.20
2018,06,21,03,31,17.20
2018,06,21,03,32,17.20
2018,06,21,03,33,17.20
2018,06,21,03,34,17.20
2018,06,21,03,35,17.20
2018,06,21,03,36,17.10
2018,06,21,03,37,17.10
2018,06,21,03,38,17.10
2018,06,21,03,39,17.10
2018,06,21,03,40,17.10
2018,06,21,03,41,17.00
2018,06,21,03,42,17.00
2018,06,21,03,43,17.00
2018,06,21,03,44,16.90
2018,06,21,03,45,16.90
2018,06,21,03,46,16.90
2018,06,21,03,47,16.90
2018,06,21,03,48,16.90
2018,06,21,03,49,16.80
2018,06,21,03,50,16.80
2018,06,21,03,51,16.80
2018,06,21,03,52,16.80
2018,06,21,03,53,16.80
2018,06,21,03,54,16.80
2018,06,21,03,55,16.80
2018,06,21,03,56,16.70
2018,06,21,03,57,16.70
2018,06,21,03,58,16.70
2018,06,21,03,59,16.70
2018,06,21,04,00,16.70
2018,06,21,04,01,16.70
2018,06,21,04,02,16.70
2018,06,21,04,03,16.80
2018,06,21,04,04,16.80
2018,06,21,04,05,16.80
2018,06,21,04,06,16.80
2018,06,21,04,07,16.80
2018,06,21,04,08,16.80
2018,06,21,04,09,16.80
2018,06,21,04,10,16.80
2018,06,21,04,11,16.80
2018,06,21,04,12,16.80
2018,06,21,04,13,16.80
2018,06,21,04,14,16.80
2018,06,21,04,15,16.80
2018,06,21,04,16,16.80
2018,06,21,04,17,16.80
2018,06,21,04,18,16.80
2018,06,21,04,19,16.80
2018,06,21,04,20,16.70
2018,06,21,04,21,16.70
2018,06,21,04,22,16.70
2018,06,21,04,23,16.70
2018,06,21,04,24,16.70
2018,06,21,04,25,16.70
2018,06,21,04,26,16.70
2018,06,21,04,27,16.60
2018,06,21,04,28,16.60
2018,06,21,04,29,16.60
2018,06,21,04,30,16.60
2018,06,21,04,31,16.60
2018,06,21,04,32,16.60
2018,06,21,04,33,16.60
2018,06,21,04,34,16.60
2018,06,21,04,35,16.60
2018,06,21,04,36,16.50
2018,06,21,04,37,16.50
2018,06,21,04,38,16.50
2018,06,21,04,39,16.50
2018,06,21,04,40,16.40
2018,06,21,04,41,16.40
2018,06,21,04,42,16.40
2018,06,21,04,43,16.40
2018,06,21,04,44,16.40
2018,06,21,04,45,16.40
2018,06,21,04,46,16.40
2018,06,21,04,47,16.30
2018,06,21,04,48,16.30
2018,06,21,04,49,16.30
2018,06,21,04,50,16.30
2018,06,21,04,51,16.30
2018,06,21,04,52,16.30
2018,06,21,04,53,16.30
2018,06,21,04,54,16.30
2018,06,21,04,55,16.30
2018,06,21,04,56,16.30
2018,06,21,04,57,16.30
2018,06,21,04,58,16.30
2018,06,21,04,59,16.30
2018,06,21,05,00,16.30
2018,06,21,05,01,16.30
2018,06,21,05,02,16.30
2018,06,21,05,03,16.30
2018,06,21,05,04,16.30
2018,06,21,05,05,16.20
2018,06,21,05,06,16.30
2018,06,21,05,07,16.20
2018,06,21,05,08,16.20
2018,06,21,05,09,16.20
2018,06,21,05,10,16.20
2018,06,21,05,11,16.20
2018,06,21,05,12,16.20
2018,06,21,05,13,16.10
2018,06,21,05,14,16.10
2018,06,21,05,15,16.10
2018,06,21,05,16,16.10
2018,06,21,05,17,16.10
2018,06,21,05,18,16.10
2018,06,21,05,19,16.10
2018,06,21,05,20,16.10
2018,06,21,05,21,16.10
2018,06,21,05,22,16.10
2018,06,21,05,23,16.00
2018,06,21,05,24,16.00
2018,06,21,05,25,16.00
2018,06,21,05,26,16.00
2018,06,21,05,27,16.00
2018,06,21,05,28,16.00
2018,06,21,05,29,16.00
2018,06,21,05,30,16.00
2018,06,21,05,31,16.00
2018,06,21,05,32,16.00
2018,06,21,05,33,16.00
2018,06,21,05,34,15.90
2018,06,21,05,35,15.90
2018,06,21,05,36,15.90
2018,06,21,05,37,15.80
2018,06,21,05,38,15.80
2018,06,21,05,39,15.80
2018,06,21,05,40,15.80
2018,06,21,05,41,15.80
2018,06,21,05,42,15.80
2018,06,21,05,43,15.80
2018,06,21,05,44,15.80
2018,06,21,05,45,15.80
2018,06,21,05,46,15.80
2018,06,21,05,47,15.80
2018,06,21,05,48,15.80
2018,06,21,05,49,15.80
2018,06,21,05,50,15.80
2018,06,21,05,51,15.80
2018,06,21,05,52,15.80
2018,06,21,05,53,15.80
2018,06,21,05,54,15.80
2018,06,21,05,55,15.80
2018,06,21,05,56,15.80
2018,06,21,05,57,15.80
2018,06,21,05,58,15.80
2018,06,21,05,59,15.80
2018,06,21,06,00,15.80
2018,06,21,06,01,15.80
2018,06,21,06,02,15.80
2018,06,21,06,03,15.80
2018,06,21,06,04,15.80
2018,06,21,06,05,15.80
2018,06,21,06,06,15.80
2018,06,21,06,07,15.80
2018,06,21,06,08,15.80
2018,06,21,06,09,15.90
2018,06,21,06,10,15.90
2018,06,21,06,11,15.90
2018,06,21,06,12,15.90
2018,06,21,06,13,15.90
2018,06,21,06,14,15.90
2018,06,21,06,15,16.00
2018,06,21,06,16,16.00
2018,06,21,06,17,16.10
2018,06,21,06,18,16.10
2018,06,21,06,19,16.10
2018,06,21,06,20,16.10
2018,06,21,06,21,16.20
2018,06,21,06,22,16.20
2018,06,21,06,23,16.20
2018,06,21,06,24,16.20
2018,06,21,06,25,16.20
2018,06,21,06,26,16.30
2018,06,21,06,27,16.30
2018,06,21,06,28,16.30
2018,06,21,06,29,16.30
2018,06,21,06,30,16.40
2018,06,21,06,31,16.40
2018,06,21,06,32,16.40
2018,06,21,06,33,16.40
2018,06,21,06,34,16.40
2018,06,21,06,35,16.40
2018,06,21,06,36,16.40
2018,06,21,06,37,16.40
2018,06,21,06,38,16.50
2018,06,21,06,39,16.50
2018,06,21,06,40,16.60
2018,06,21,06,41,16.60
2018,06,21,06,42,16.60
2018,06,21,06,43,16.60
2018,06,21,06,44,16.60
2018,06,21,06,45,16.60
2018,06,21,06,46,16.70
2018,06,21,06,47,16.70
2018,06,21,06,48,16.70
2018,06,21,06,49,16.70
2018,06,21,06,50,16.70
2018,06,21,06,51,16.70
2018,06,21,06,52,16.80
2018,06,21,06,53,16.80
2018,06,21,06,54,16.80
2018,06,21,06,55,16.80
2018,06,21,06,56,16.80
2018,06,21,06,57,16.90
2018,06,21,06,58,16.90
2018,06,21,06,59,16.90
2018,06,21,07,00,17.00
2018,06,21,07,01,17.00
2018,06,21,07,02,17.00
2018,06,21,07,03,17.10
2018,06,21,07,04,17.10
2018,06,21,07,05,17.20
2018,06,21,07,06,17.30
2018,06,21,07,07,17.30
2018,06,21,07,08,17.40
2018,06,21,07,09,17.50
2018,06,21,07,10,17.60
2018,06,21,07,11,17.60
2018,06,21,07,12,17.70
2018,06,21,07,13,17.70
2018,06,21,07,14,17.80
2018,06,21,07,15,17.90
2018,06,21,07,16,18.00
2018,06,21,07,17,18.10
2018,06,21,07,18,18.20
2018,06,21,07,19,18.30
2018,06,21,07,20,18.40
2018,06,21,07,21,18.50
2018,06,21,07,22,18.60
2018,06,21,07,23,18.60
2018,06,21,07,24,18.70
2018,06,21,07,25,18.70
2018,06,21,07,26,18.70
2018,06,21,07,27,18.70
2018,06,21,07,28,18.70
2018,06,21,07,29,18.70
2018,06,21,07,30,18.70
2018,06,21,07,31,18.80
2018,06,21,07,32,18.80
2018,06,21,07,33,18.80
2018,06,21,07,34,18.90
2018,06,21,07,35,18.90
2018,06,21,07,36,18.90
2018,06,21,07,37,18.90
2018,06,21,07,38,19.00
2018,06,21,07,39,18.90
2018,06,21,07,40,18.90
2018,06,21,07,41,18.90
2018,06,21,07,42,18.90
2018,06,21,07,43,18.90
2018,06,21,07,44,18.90
2018,06,21,07,45,18.90
2018,06,21,07,46,18.90
2018,06,21,07,47,18.90
2018,06,21,07,48,19.00
2018,06,21,07,49,19.00
2018,06,21,07,50,19.10
2018,06,21,07,51,19.10
2018,06,21,07,52,19.10
2018,06,21,07,53,19.10
2018,06,21,07,54,19.10
2018,06,21,07,55,19.10
2018,06,21,07,56,19.10
2018,06,21,07,57,19.00
2018,06,21,07,58,19.00
2018,06,21,07,59,19.00
2018,06,21,08,00,19.00
2018,06,21,08,01,19.10
2018,06,21,08,02,19.10
2018,06,21,08,03,19.10
2018,06,21,08,04,19.10
2018,06,21,08,05,19.10
2018,06,21,08,06,19.20
2018,06,21,08,07,19.20
2018,06,21,08,08,19.20
2018,06,21,08,09,19.30
2018,06,21,08,10,19.40
2018,06,21,08,11,19.40
2018,06,21,08,12,19.50
2018,06,21,08,13,19.60
2018,06,21,08,14,19.70
2018,06,21,08,15,19.70
2018,06,21,08,16,19.80
2018,06,21,08,17,19.80
2018,06,21,08,18,19.90
2018,06,21,08,19,20.00
2018,06,21,08,20,20.20
2018,06,21,08,21,20.30
2018,06,21,08,22,20.30
2018,06,21,08,23,20.40
2018,06,21,08,24,20.40
2018,06,21,08,25,20.50
2018,06,21,08,26,20.50
2018,06,21,08,27,20.60
2018,06,21,08,28,20.60
2018,06,21,08,29,20.70
2018,06,21,08,30,20.70
2018,06,21,08,31,20.70
2018,06,21,08,32,20.70
2018,06,21,08,33,20.70
2018,06,21,08,34,20.70
2018,06,21,08,35,20.70
2018,06,21,08,36,20.70
2018,06,21,08,37,20.80
2018,06,21,08,38,20.80
2018,06,21,08,39,20.80
2018,06,21,08,40,20.80
2018,06,21,08,41,20.80
2018,06,21,08,42,20.90
2018,06,21,08,43,20.90
2018,06,21,08,44,20.90
2018,06,21,08,45,21.00
2018,06,21,08,46,20.90
2018,06,21,08,47,20.90
2018,06,21,08,48,20.90
2018,06,21,08,49,20.90
2018,06,21,08,50,20.90
2018,06,21,08,51,21.00
2018,06,21,08,52,21.10
2018,06,21,08,53,21.10
2018,06,21,08,54,21.20
2018,06,21,08,55,21.20
2018,06,21,08,56,21.20
2018,06,21,08,57,21.30
2018,06,21,08,58,21.30
2018,06,21,08,59,21.30
2018,06,21,09,00,21.30
2018,06,21,09,01,21.30
2018,06,21,09,02,21.20
2018,06,21,09,03,21.10
2018,06,21,09,04,21.00
2018,06,21,09,05,20.90
2018,06,21,09,06,20.80
2018,06,21,09,07,20.80
2018,06,21,09,08,20.70
2018,06,21,09,09,20.60
2018,06,21,09,10,20.60
2018,06,21,09,11,20.60
2018,06,21,09,12,20.50
2018,06,21,09,13,20.50
2018,06,21,09,14,20.50
2018,06,21,09,15,20.40
2018,06,21,09,16,20.40
2018,06,21,09,17,20.40
2018,06,21,09,18,20.30
2018,06,21,09,19,20.20
2018,06,21,09,20,20.20
2018,06,21,09,21,20.20
2018,06,21,09,22,20.10
2018,06,21,09,23,20.10
2018,06,21,09,24,20.20
2018,06,21,09,25,20.20
2018,06,21,09,26,20.20
2018,06,21,09,27,20.20
2018,06,21,09,28,20.20
2018,06,21,09,29,20.20
2018,06,21,09,30,20.30
2018,06,21,09,31,20.40
2018,06,21,09,32,20.40
2018,06,21,09,33,20.50
2018,06,21,09,34,20.60
2018,06,21,09,35,20.80
2018,06,21,09,36,20.90
2018,06,21,09,37,21.00
2018,06,21,09,38,21.10
2018,06,21,09,39,21.20
2018,06,21,09,40,21.20
2018,06,21,09,41,21.30
2018,06,21,09,42,21.30
2018,06,21,09,43,21.30
2018,06,21,09,44,21.30
2018,06,21,09,45,21.30
2018,06,21,09,46,21.20
2018,06,21,09,47,21.10
2018,06,21,09,48,21.00
2018,06,21,09,49,20.90
2018,06,21,09,50,20.90
2018,06,21,09,51,20.80
2018,06,21,09,52,20.80
2018,06,21,09,53,20.70
2018,06,21,09,54,20.70
2018,06,21,09,55,20.60
2018,06,21,09,56,20.60
2018,06,21,09,57,20.60
2018,06,21,09,58,20.50
2018,06,21,09,59,20.50
2018,06,21,10,00,20.40
2018,06,21,10,01,20.40
2018,06,21,10,02,20.40
2018,06,21,10,03,20.40
2018,06,21,10,04,20.30
2018,06,21,10,05,20.30
2018,06,21,10,06,20.30
2018,06,21,10,07,20.30
2018,06,21,10,08,20.30
2018,06,21,10,09,20.30
2018,06,21,10,10,20.30
2018,06,21,10,11,20.20
2018,06,21,10,12,20.20
2018,06,21,10,13,20.20
2018,06,21,10,14,20.10
2018,06,21,10,15,20.20
2018,06,21,10,16,20.20
2018,06,21,10,17,20.30
2018,06,21,10,18,20.30
2018,06,21,10,19,20.40
2018,06,21,10,20,20.40
2018,06,21,10,21,20.50
2018,06,21,10,22,20.60
2018,06,21,10,23,20.70
2018,06,21,10,24,20.80
2018,06,21,10,25,20.90
2018,06,21,10,26,20.90
2018,06,21,10,27,20.90
2018,06,21,10,28,21.00
2018,06,21,10,29,21.00
2018,06,21,10,30,21.10
2018,06,21,10,31,21.10
2018,06,21,10,32,21.00
2018,06,21,10,33,21.00
2018,06,21,10,34,20.90
2018,06,21,10,35,20.90
2018,06,21,10,36,20.80
2018,06,21,10,37,20.80
2018,06,21,10,38,20.80
2018,06,21,10,39,20.70
2018,06,21,10,40,20.70
2018,06,21,10,41,20.70
2018,06,21,10,42,20.60
2018,06,21,10,43,20.60
2018,06,21,10,44,20.60
2018,06,21,10,45,20.50
2018,06,21,10,46,20.50
2018,06,21,10,47,20.40
2018,06,21,10,48,20.40
2018,06,21,10,49,20.30
2018,06,21,10,50,20.20
2018,06,21,10,51,20.20
2018,06,21,10,52,20.00
2018,06,21,10,53,19.90
2018,06,21,10,54,19.90
2018,06,21,10,55,19.70
2018,06,21,10,56,19.60
2018,06,21,10,57,19.50
2018,06,21,10,58,19.40
2018,06,21,10,59,19.40
2018,06,21,11,00,19.40
2018,06,21,11,01,19.40
2018,06,21,11,02,19.40
2018,06,21,11,03,19.40
2018,06,21,11,04,19.40
2018,06,21,11,05,19.30
2018,06,21,11,06,19.30
2018,06,21,11,07,19.30
2018,06,21,11,08,19.30
2018,06,21,11,09,19.20
2018,06,21,11,10,19.30
2018,06,21,11,11,19.20
2018,06,21,11,12,19.20
2018,06,21,11,13,19.20
2018,06,21,11,14,19.10
2018,06,21,11,15,19.10
2018,06,21,11,16,19.10
2018,06,21,11,17,19.10
2018,06,21,11,18,19.10
2018,06,21,11,19,19.10
2018,06,21,11,20,19.10
2018,06,21,11,21,19.10
2018,06,21,11,22,19.10
2018,06,21,11,23,19.20
2018,06,21,11,24,19.20
2018,06,21,11,25,19.30
2018,06,21,11,26,19.30
2018,06,21,11,27,19.40
2018,06,21,11,28,19.40
2018,06,21,11,29,19.50
2018,06,21,11,30,19.50
2018,06,21,11,31,19.60
2018,06,21,11,32,19.60
2018,06,21,11,33,19.70
2018,06,21,11,34,19.70
2018,06,21,11,35,19.80
2018,06,21,11,36,19.90
2018,06,21,11,37,19.90
2018,06,21,11,38,19.90
2018,06,21,11,39,19.90
2018,06,21,11,40,19.90
2018,06,21,11,41,19.90
2018,06,21,11,42,20.00
2018,06,21,11,43,20.00
2018,06,21,11,44,20.10
2018,06,21,11,45,20.10
2018,06,21,11,46,20.20
2018,06,21,11,47,20.20
2018,06,21,11,48,20.20
2018,06,21,11,49,20.20
2018,06,21,11,50,20.20
2018,06,21,11,51,20.20
2018,06,21,11,52,20.30
2018,06,21,11,53,20.40
2018,06,21,11,54,20.40
2018,06,21,11,55,20.40
2018,06,21,11,56,20.40
2018,06,21,11,57,20.50
2018,06,21,11,58,20.60
2018,06,21,11,59,20.60
2018,06,21,12,00,20.70
2018,06,21,12,01,20.80
2018,06,21,12,02,20.80
2018,06,21,12,03,20.80
2018,06,21,12,04,20.90
2018,06,21,12,05,20.90
2018,06,21,12,06,20.80
2018,06,21,12,07,20.80
2018,06,21,12,08,20.70
2018,06,21,12,09,20.60
2018,06,21,12,10,20.50
2018,06,21,12,11,20.50
2018,06,21,12,12,20.50
2018,06,21,12,13,20.40
2018,06,21,12,14,20.50
2018,06,21,12,15,20.50
2018,06,21,12,16,20.40
2018,06,21,12,17,20.40
2018,06,21,12,18,20.40
2018,06,21,12,19,20.40
2018,06,21,12,20,20.40
2018,06,21,12,21,20.40
2018,06,21,12,22,20.40
2018,06,21,12,23,20.30
2018,06,21,12,24,20.20
2018,06,21,12,25,20.20
2018,06,21,12,26,20.20
2018,06,21,12,27,20.30
2018,06,21,12,28,20.40
2018,06,21,12,29,20.50
2018,06,21,12,30,20.60
2018,06,21,12,31,20.60
2018,06,21,12,32,20.60
2018,06,21,12,33,20.60
2018,06,21,12,34,20.60
2018,06,21,12,35,20.60
2018,06,21,12,36,20.60
2018,06,21,12,37,20.60
2018,06,21,12,38,20.60
2018,06,21,12,39,20.50
2018,06,21,12,40,20.40
2018,06,21,12,41,20.30
2018,06,21,12,42,20.20
2018,06,21,12,43,20.10
2018,06,21,12,44,20.00
2018,06,21,12,45,20.00
2018,06,21,12,46,20.00
2018,06,21,12,47,20.00
2018,06,21,12,48,20.10
2018,06,21,12,49,20.20
2018,06,21,12,50,20.30
2018,06,21,12,51,20.40
2018,06,21,12,52,20.40
2018,06,21,12,53,20.40
2018,06,21,12,54,20.40
2018,06,21,12,55,20.30
2018,06,21,12,56,20.30
2018,06,21,12,57,20.40
2018,06,21,12,58,20.40
2018,06,21,12,59,20.50
2018,06,21,13,00,20.60
2018,06,21,13,01,20.60
2018,06,21,13,02,20.70
2018,06,21,13,03,20.80
2018,06,21,13,04,20.90
2018,06,21,13,05,21.00
2018,06,21,13,06,21.10
2018,06,21,13,07,21.20
2018,06,21,13,08,21.30
2018,06,21,13,09,21.30
2018,06,21,13,10,21.30
2018,06,21,13,11,21.20
2018,06,21,13,12,21.20
2018,06,21,13,13,21.10
2018,06,21,13,14,21.20
2018,06,21,13,15,21.20
2018,06,21,13,16,21.10
2018,06,21,13,17,21.20
2018,06,21,13,18,21.20
2018,06,21,13,19,21.20
2018,06,21,13,20,21.10
2018,06,21,13,21,21.10
2018,06,21,13,22,21.10
2018,06,21,13,23,21.10
2018,06,21,13,24,21.10
2018,06,21,13,25,21.10
2018,06,21,13,26,21.10
2018,06,21,13,27,21.10
2018,06,21,13,28,21.10
2018,06,21,13,29,21.10
2018,06,21,13,30,21.20
2018,06,21,13,31,21.20
2018,06,21,13,32,21.30
2018,06,21,13,33,21.40
2018,06,21,13,34,21.50
2018,06,21,13,35,21.50
2018,06,21,13,36,21.60
2018,06,21,13,37,21.60
2018,06,21,13,38,21.60
2018,06,21,13,39,21.60
2018,06,21,13,40,21.60
2018,06,21,13,41,21.60
2018,06,21,13,42,21.60
2018,06,21,13,43,21.50
2018,06,21,13,44,21.40
2018,06,21,13,45,21.30
2018,06,21,13,46,21.20
2018,06,21,13,47,21.20
2018,06,21,13,48,21.20
2018,06,21,13,49,21.10
2018,06,21,13,50,21.10
2018,06,21,13,51,21.10
2018,06,21,13,52,21.10
2018,06,21,13,53,21.10
2018,06,21,13,54,21.20
2018,06,21,13,55,21.20
2018,06,21,13,56,21.10
2018,06,21,13,57,21.10
2018,06,21,13,58,20.90
2018,06,21,13,59,20.80
2018,06,21,14,00,20.80
2018,06,21,14,01,20.80
2018,06,21,14,02,20.80
2018,06,21,14,03,20.80
2018,06,21,14,04,20.80
2018,06,21,14,05,20.90
2018,06,21,14,06,21.00
2018,06,21,14,07,21.10
2018,06,21,14,08,21.10
2018,06,21,14,09,21.10
2018,06,21,14,10,21.10
2018,06,21,14,11,21.10
2018,06,21,14,12,21.20
2018,06,21,14,13,21.30
2018,06,21,14,14,21.40
2018,06,21,14,15,21.50
2018,06,21,14,16,21.60
2018,06,21,14,17,21.60
2018,06,21,14,18,21.50
2018,06,21,14,19,21.50
2018,06,21,14,20,21.40
2018,06,21,14,21,21.30
2018,06,21,14,22,21.40
2018,06,21,14,23,21.40
2018,06,21,14,24,21.40
2018,06,21,14,25,21.50
2018,06,21,14,26,21.60
2018,06,21,14,27,21.70
2018,06,21,14,28,21.70
2018,06,21,14,29,21.80
2018,06,21,14,30,21.80
2018,06,21,14,31,21.80
2018,06,21,14,32,21.80
2018,06,21,14,33,21.80
2018,06,21,14,34,21.80
2018,06,21,14,35,21.80
2018,06,21,14,36,21.90
2018,06,21,14,37,21.90
2018,06,21,14,38,21.80
2018,06,21,14,39,21.80
2018,06,21,14,40,21.80
2018,06,21,14,41,21.80
2018,06,21,14,42,21.80
2018,06,21,14,43,21.80
2018,06,21,14,44,21.80
2018,06,21,14,45,21.80
2018,06,21,14,46,21.80
2018,06,21,14,47,21.80
2018,06,21,14,48,21.80
2018,06,21,14,49,21.80
2018,06,21,14,50,21.80
2018,06,21,14,51,21.80
2018,06,21,14,52,21.80
2018,06,21,14,53,21.80
2018,06,21,14,54,21.70
2018,06,21,14,55,21.70
2018,06,21,14,56,21.70
2018,06,21,14,57,21.60
2018,06,21,14,58,21.60
2018,06,21,14,59,21.40
2018,06,21,15,00,21.40
2018,06,21,15,01,21.30
2018,06,21,15,02,21.30
2018,06,21,15,03,21.30
2018,06,21,15,04,21.20
2018,06,21,15,05,21.20
2018,06,21,15,06,21.20
2018,06,21,15,07,21.30
2018,06,21,15,08,21.30
2018,06,21,15,09,21.40
2018,06,21,15,10,21.30
2018,06,21,15,11,21.30
2018,06,21,15,12,21.30
2018,06,21,15,13,21.20
2018,06,21,15,14,21.20
2018,06,21,15,15,21.10
2018,06,21,15,16,21.10
2018,06,21,15,17,21.10
2018,06,21,15,18,21.10
2018,06,21,15,19,21.00
2018,06,21,15,20,20.90
2018,06,21,15,21,20.90
2018,06,21,15,22,20.90
2018,06,21,15,23,21.00
2018,06,21,15,24,21.00
2018,06,21,15,25,21.10
2018,06,21,15,26,21.10
2018,06,21,15,27,21.10
2018,06,21,15,28,21.10
2018,06,21,15,29,21.10
2018,06,21,15,30,21.00
2018,06,21,15,31,20.90
2018,06,21,15,32,20.90
2018,06,21,15,33,20.90
2018,06,21,15,34,20.90
2018,06,21,15,35,21.00
2018,06,21,15,36,21.00
2018,06,21,15,37,21.10
2018,06,21,15,38,21.20
2018,06,21,15,39,21.20
2018,06,21,15,40,21.30
2018,06,21,15,41,21.50
2018,06,21,15,42,21.60
2018,06,21,15,43,21.70
2018,06,21,15,44,21.80
2018,06,21,15,45,21.80
2018,06,21,15,46,21.80
2018,06,21,15,47,21.80
2018,06,21,15,48,21.80
2018,06,21,15,49,21.80
2018,06,21,15,50,21.90
2018,06,21,15,51,22.00
2018,06,21,15,52,22.10
2018,06,21,15,53,22.10
2018,06,21,15,54,22.10
2018,06,21,15,55,22.20
2018,06,21,15,56,22.10
2018,06,21,15,57,22.10
2018,06,21,15,58,22.00
2018,06,21,15,59,21.90
2018,06,21,16,00,21.90
2018,06,21,16,01,21.90
2018,06,21,16,02,21.80
2018,06,21,16,03,21.80
2018,06,21,16,04,21.80
2018,06,21,16,05,21.80
2018,06,21,16,06,21.80
2018,06,21,16,07,21.80
2018,06,21,16,08,21.80
2018,06,21,16,09,21.80
2018,06,21,16,10,21.70
2018,06,21,16,11,21.60
2018,06,21,16,12,21.50
2018,06,21,16,13,21.40
2018,06,21,16,14,21.40
2018,06,21,16,15,21.30
2018,06,21,16,16,21.30
2018,06,21,16,17,21.20
2018,06,21,16,18,21.20
2018,06,21,16,19,21.10
2018,06,21,16,20,21.00
2018,06,21,16,21,21.00
2018,06,21,16,22,20.90
2018,06,21,16,23,20.80
2018,06,21,16,24,20.70
2018,06,21,16,25,20.60
2018,06,21,16,26,20.70
2018,06,21,16,27,20.70
2018,06,21,16,28,20.70
2018,06,21,16,29,20.80
2018,06,21,16,30,20.70
2018,06,21,16,31,20.50
2018,06,21,16,32,20.50
2018,06,21,16,33,20.40
2018,06,21,16,34,20.40
2018,06,21,16,35,20.30
2018,06,21,16,36,20.20
2018,06,21,16,37,20.20
2018,06,21,16,38,20.20
2018,06,21,16,39,20.30
2018,06,21,16,40,20.30
2018,06,21,16,41,20.40
2018,06,21,16,42,20.40
2018,06,21,16,43,20.40
2018,06,21,16,44,20.60
2018,06,21,16,45,20.70
2018,06,21,16,46,20.70
2018,06,21,16,47,20.80
2018,06,21,16,48,20.80
2018,06,21,16,49,20.80
2018,06,21,16,50,20.90
2018,06,21,16,51,20.90
2018,06,21,16,52,20.90
2018,06,21,16,53,21.10
2018,06,21,16,54,21.10
2018,06,21,16,55,21.20
2018,06,21,16,56,21.20
2018,06,21,16,57,21.30
2018,06,21,16,58,21.30
2018,06,21,16,59,21.40
2018,06,21,17,00,21.50
2018,06,21,17,01,21.50
2018,06,21,17,02,21.60
2018,06,21,17,03,21.60
2018,06,21,17,04,21.60
2018,06,21,17,05,21.70
2018,06,21,17,06,21.70
2018,06,21,17,07,21.70
2018,06,21,17,08,21.60
2018,06,21,17,09,21.60
2018,06,21,17,10,21.50
2018,06,21,17,11,21.50
2018,06,21,17,12,21.50
2018,06,21,17,13,21.40
2018,06,21,17,14,21.40
2018,06,21,17,15,21.50
2018,06,21,17,16,21.50
2018,06,21,17,17,21.50
2018,06,21,17,18,21.60
2018,06,21,17,19,21.60